Essex, Connecticut, United States (06426)
Lat: 41.35N, Lon: 72.39W
Wx Zone: CTZ011
Local Info
Past Weather Observations for Today

NOTE: This archive is for the closest National Weather Service station to Essex. Information may differ from the station used for current weather conditions.

Click here for Long-term Archive

Time Weather Temperature Dewpoint Humidity Pressure Winds Precip Visibility
21:56
Clear
68°F / 20°C 63°F / 17°C 83% 30.01 in
(1016 mb)
SSW 5.8 mph
(SSW 9 kph)
- 10SM
20:56
Clear
68°F / 20°C 63°F / 17°C 83% 30.01 in
(1016 mb)
SSW 5.8 mph
(SSW 9 kph)
- 10SM
19:56
Clear
70°F / 21°C 63°F / 17°C 78% 30.01 in
(1016 mb)
SW 8.1 mph
(SW 13 kph)
- 10SM
18:56
Clear
70°F / 21°C 64°F / 18°C 83% 29.98 in
(1015 mb)
S 6.9 mph
(S 11 kph)
- 8SM
17:56
Clear
73°F / 23°C 57°F / 14°C 57% 29.98 in
(1015 mb)
SSW 6.9 mph
(SSW 11 kph)
- 9SM
16:56
Clear
75°F / 24°C 57°F / 14°C 54% 29.95 in
(1014 mb)
SSW 11.5 mph
(SSW 19 kph)
- 9SM
15:56
Clear
75°F / 24°C 61°F / 16°C 61% 29.95 in
(1014 mb)
SW 11.5 mph
(SW 19 kph)
- 9SM
14:56
Clear
75°F / 24°C 61°F / 16°C 61% 29.98 in
(1015 mb)
SW 13.8 mph
(SW 22 kph)
- 9SM
13:56
Clear
79°F / 26°C 55°F / 13°C 45% 29.98 in
(1015 mb)
Variable 5.8 mph
(Variable 9 kph)
- 9SM
12:56
Clear
79°F / 26°C 55°F / 13°C 45% 29.98 in
(1015 mb)
Variable 3.5 mph
(Variable 6 kph)
- 10SM
11:56
Clear
77°F / 25°C 54°F / 12°C 44% 29.98 in
(1015 mb)
N 9.2 mph
(N 15 kph)
- 10SM
10:56
Clear
75°F / 24°C 55°F / 13°C 50% 29.98 in
(1015 mb)
Variable 5.8 mph
(Variable 9 kph)
- 10SM
09:56
Clear
73°F / 23°C 54°F / 12°C 50% 30.01 in
(1016 mb)
N 9.2 mph
(N 15 kph)
- 10SM
08:56
Clear
72°F / 22°C 54°F / 12°C 53% 30.01 in
(1016 mb)
NNW 11.5 mph
(NNW 19 kph)
- 10SM
07:56
Clear
70°F / 21°C 54°F / 12°C 57% 29.98 in
(1015 mb)
NNW 9.2 mph
(NNW 15 kph)
- 10SM
06:56
Clear
66°F / 19°C 55°F / 13°C 68% 29.98 in
(1015 mb)
N 8.1 mph
(N 13 kph)
- 10SM
05:56
Clear
63°F / 17°C 55°F / 13°C 77% 29.98 in
(1015 mb)
N 9.2 mph
(N 15 kph)
- 10SM
04:56
Clear
61°F / 16°C 57°F / 14°C 88% 29.95 in
(1014 mb)
N 8.1 mph
(N 13 kph)
- 10SM
03:56
Partly Cloudy
63°F / 17°C 61°F / 16°C 94% 29.95 in
(1014 mb)
N 9.2 mph
(N 15 kph)
- 10SM
02:56
Clear
64°F / 18°C 63°F / 17°C 94% 29.92 in
(1013 mb)
N 5.8 mph
(N 9 kph)
- 10SM
01:56
Clear
64°F / 18°C 63°F / 17°C 94% 29.92 in
(1013 mb)
Calm - 10SM
00:56
Mostly Cloudy
64°F / 18°C 64°F / 18°C 100% 29.92 in
(1013 mb)
NW 3.5 mph
(NW 6 kph)
- 9SM
Time Weather Temperature Dewpoint Humidity Pressure Winds Precip Visibility


Weather for websites

WeatherForYou.com, LLC is not responsible for any damages or problems caused by this service. Current weather conditions are obtained from the closest station including government and personal stations which may have varying degrees of accuracy. Weather forecasts are derived from the NOAA NDFD. Like all things, this site belongs to Jesus Christ... He just trusts me to maintain it. If you have any questions or comments email webmaster@weatherforyou.com

Copyright © 2014, WeatherForYou.com LLC. All rights reserved.